Location: El Bakhil
(32.7726°N, 5.5387°W)
Time: 08:22:30
(UTC+00:00)

M-CUBED/EXP-1 PRIME - Visible Passes

Search period start: 27 November 2022 00:00
Search period end: 07 December 2022 00:00
Orbit: 419 x 617 km, 101.7° (Epoch: 26 November)

Date Brightness Start Highest point End Pass type
(mag) Time Alt. Az. Time Alt. Az. Time Alt. Az.
29 Nov ? 06:31:45 10° ESE 06:34:49 23° ENE 06:38:00 10° NNE visible
30 Nov ? 06:18:32 10° E 06:20:49 15° ENE 06:23:10 10° NNE visible
05 Dec ? 06:40:08 10° ESE 06:43:12 21° ENE 06:46:21 10° NNE visible
06 Dec ? 06:26:56 10° E 06:29:06 14° ENE 06:31:17 10° NNE visible
